Barrow, AK

4:56 PM AKDT on October 23, 2017 (GMT -0800)
Wiley Post-Will Rogers Memorial

Weather History for PABR - June, 2014

Change the Weather History Date:

Wednesday, June 4, 2014

  Actual Average Record
Temperature  
Mean Temperature 35 °F 31 °F  
Max Temperature 37 °F 35 °F 47 °F (1983)
Min Temperature 33 °F 27 °F 8 °F (1933)
Degree Days  
Heating Degree Days 30 34  
Month to date heating degree days 140 138  
Since 1 June heating degree days 140 138  
Since 1 July heating degree days 16988 18657  
Cooling Degree Days 0 0  
Month to date cooling degree days 0 0  
Year to date cooling degree days 0 0  
Since 1 June cooling degree days 0 0  
Moisture  
Dew Point 33 °F    
Average Humidity 0    
Maximum Humidity 0    
Minimum Humidity 0    
Precipitation  
Precipitation 0.16 in 0.01 in 0.16 in (2014)
Month to date precipitation 0.17 0.03  
Year to date precipitation 1.79 0.73  
Snow  
Snow T in 0.10 in 0.40 in (1950)
Month to date snowfall 0.4 0.2  
Since 1 June snowfall 0.4 0.2  
Since 1 July snowfall 53.7 37.2  
Snow Depth T in    
Sea Level Pressure  
Sea Level Pressure 30.04 in    
Wind  
Wind Speed 10 mph (ESE)    
Max Wind Speed 18 mph    
Max Gust Speed 22 mph    
Visibility 6 miles    
Events Rain , Snow    
T = Trace of Precipitation, MM = Missing Value Source: NWS Daily Summary

Daily Weather History Graph

Daily Weather History Graph

Search for Another Location

Airport or City:

Trip Planner

Search our weather history database for the weather conditions in past years. The results will help you decide how hot, cold, wet, or windy it might be!

Date:

Astronomy

Dec. 31, 1969 Rise Set
Actual Time Sun does not rise Sun does not rise
Civil Twilight Sun does not rise Sun does not rise
Nautical Twilight Sun does not rise Sun does not rise
Astronomical Twilight Sun does not rise Sun does not rise
Moon 12:31 PM AKDT (6/4) 3:07 AM AKDT (6/4)
Length of Visible Light 24h 00m
Length of Day
24h 00m
Waxing Crescent, 40% of the Moon is Illuminated
Jun 4
Waxing Crescent
Jun 5
First Quarter
Jun 12
Full
Jun 19
Last Quarter
Jun 27
New

Hourly Weather History & Observations

Time (AKDT) Temp. Windchill Dew Point Humidity Pressure Visibility Wind Dir Wind Speed Gust Speed Precip Events Conditions
12:53 AM 35.1 °F 26.9 °F 30.9 °F 85% 30.18 in 10.0 mi SE 11.5 mph - 0.00 in   Overcast
1:53 AM 35.1 °F 25.2 °F 30.9 °F 85% 30.16 in 10.0 mi SE 16.1 mph - N/A   Overcast
2:53 AM 35.1 °F 24.5 °F 30.9 °F 85% 30.15 in 10.0 mi SE 18.4 mph - 0.00 in Rain Light Rain
3:53 AM 35.1 °F 25.2 °F 30.9 °F 85% 30.14 in 10.0 mi SE 16.1 mph - 0.00 in   Overcast
4:53 AM 34.0 °F 25.0 °F 30.9 °F 89% 30.13 in 10.0 mi SE 12.7 mph - 0.00 in Rain Light Rain
5:53 AM 34.0 °F 24.6 °F 30.9 °F 89% 30.12 in 10.0 mi SE 13.8 mph - 0.00 in Rain Light Rain
6:53 AM 34.0 °F 23.8 °F 30.9 °F 89% 30.10 in 10.0 mi ESE 16.1 mph - 0.00 in   Overcast
7:53 AM 34.0 °F 24.2 °F 30.9 °F 89% 30.08 in 10.0 mi SE 15.0 mph - N/A   Overcast
8:53 AM 34.0 °F 25.0 °F 30.9 °F 89% 30.08 in 10.0 mi SE 12.7 mph - N/A   Overcast
9:53 AM 34.0 °F 25.5 °F 32.0 °F 92% 30.07 in 10.0 mi SE 11.5 mph - 0.00 in Rain Light Rain
10:53 AM 35.1 °F 26.4 °F 32.0 °F 89% 30.06 in 10.0 mi SE 12.7 mph - 0.00 in Rain , Snow Light Rain
11:53 AM 35.1 °F 26.9 °F 32.0 °F 89% 30.05 in 10.0 mi SE 11.5 mph - 0.00 in Rain Light Rain
12:53 PM 35.1 °F 26.9 °F 32.0 °F 89% 30.04 in 10.0 mi SE 11.5 mph - 0.00 in Rain , Snow Light Rain
1:53 PM 35.1 °F 27.9 °F 33.1 °F 92% 30.04 in 10.0 mi SE 9.2 mph - 0.00 in Rain Light Rain
2:53 PM 35.1 °F 28.6 °F 33.1 °F 92% 30.02 in 10.0 mi SE 8.1 mph - 0.00 in Rain Light Rain
3:53 PM 35.1 °F 29.3 °F 34.0 °F 96% 30.02 in 6.0 mi SE 6.9 mph - 0.01 in Rain Light Rain
4:01 PM 35.1 °F 30.1 °F 33.1 °F 92% 30.01 in 6.0 mi SE 5.8 mph - 0.00 in Rain Light Rain
4:39 PM 35.1 °F 31.0 °F 34.0 °F 96% 30.01 in 5.0 mi SSE 4.6 mph - 0.03 in Rain Light Rain
4:53 PM 35.1 °F 32.2 °F 35.1 °F 100% 30.01 in 3.0 mi SE 3.5 mph - 0.04 in Rain Light Rain
5:24 PM 36.0 °F 32.1 °F 35.1 °F 97% 30.00 in 7.0 mi SSE 4.6 mph - 0.01 in Rain Light Rain
5:32 PM 36.0 °F 33.3 °F 35.1 °F 97% 30.00 in 6.0 mi SSE 3.5 mph - 0.01 in Rain Light Rain
5:53 PM 37.0 °F - 36.0 °F 96% 30.00 in 5.0 mi Calm Calm - 0.02 in Rain Light Rain
6:03 PM 37.0 °F 34.5 °F 36.0 °F 96% 30.00 in 1.5 mi SE 3.5 mph - 0.00 in Rain Light Rain
6:29 PM 36.0 °F 32.1 °F 36.0 °F 100% 29.99 in 0.8 mi East 4.6 mph - 0.01 in Rain Light Rain
6:53 PM 36.0 °F 31.1 °F 35.1 °F 97% 29.99 in 0.8 mi East 5.8 mph - 0.02 in Rain Light Rain
7:17 PM 35.1 °F 30.1 °F 34.0 °F 96% 29.98 in 1.0 mi East 5.8 mph - 0.01 in Rain Light Rain
7:44 PM 35.1 °F 29.3 °F 33.1 °F 92% 29.98 in 3.0 mi ESE 6.9 mph - 0.02 in Rain Light Rain
7:53 PM 35.1 °F 29.3 °F 33.1 °F 92% 29.99 in 3.0 mi ESE 6.9 mph - 0.02 in Rain Light Rain
8:53 PM 34.0 °F 27.2 °F 33.1 °F 96% 29.98 in 3.0 mi East 8.1 mph - 0.03 in Rain Light Rain
9:20 PM 34.0 °F 27.2 °F 32.0 °F 92% 29.97 in 3.0 mi East 8.1 mph - 0.01 in Rain Light Rain
9:41 PM 34.0 °F 27.2 °F 32.0 °F 92% 29.97 in 3.0 mi East 8.1 mph - 0.01 in Rain Light Rain
9:53 PM 34.0 °F 27.2 °F 32.0 °F 92% 29.97 in 3.0 mi East 8.1 mph - 0.02 in Rain Light Rain
10:53 PM 33.1 °F 26.9 °F 32.0 °F 96% 29.97 in 7.0 mi East 6.9 mph - 0.00 in Rain Light Rain
11:53 PM 33.1 °F 26.9 °F 32.0 °F 96% 29.96 in 5.0 mi East 6.9 mph - 0.00 in   Overcast